GFSMA_500_rhum_300.txt.gz
RH
10 11 11 9 7 3 3 3 2 1 2 2 2 6 8 6 5 6 6 4 4 2 7 85 89 94 93 94 96 96 95 95 39 22 7 5 5 6 6 10 13 16 15
10 12 11 8 4 4 2 2 2 3 4 3 2 4 8 7 5 5 6 5 5 2 2 42 93 96 97 95 95 96 95 90 46 20 8 6 6 6 6 8 13 18 17
13 13 10 4 4 3 2 5 8 10 5 5 4 2 7 8 6 5 6 6 5 3 2 18 86 97 96 97 96 96 95 94 56 21 8 6 6 6 6 6 10 16 18
16 13 6 4 3 3 6 13 23 15 12 11 12 4 2 10 7 5 5 6 5 4 3 3 75 97 95 97 96 97 92 96 74 28 10 6 6 6 6 6 7 12 16
16 9 5 3 3 7 16 30 34 23 22 23 14 9 2 8 9 6 5 6 4 5 4 2 68 98 98 96 97 98 83 89 84 37 12 6 6 6 6 5 5 7 13
14 7 4 3 7 15 31 41 42 34 31 29 27 11 5 3 10 6 6 5 4 5 4 2 43 92 97 97 95 97 85 77 85 53 12 6 6 7 6 6 6 5 10
11 6 4 4 12 27 39 44 42 35 33 35 32 20 6 3 9 7 6 4 5 4 4 2 28 91 97 96 96 98 92 81 82 68 14 7 7 7 6 7 6 5 7
10 6 3 7 15 34 40 44 33 31 37 40 37 27 17 6 5 8 6 4 5 4 4 2 15 91 91 98 96 95 93 81 76 76 24 8 7 7 7 8 7 6 5
9 5 4 10 24 38 46 38 27 34 36 44 41 34 13 4 3 7 6 4 5 4 3 3 3 74 91 94 94 94 97 83 73 76 42 9 8 7 8 8 7 6 5
8 4 6 10 33 40 54 26 40 36 54 44 44 83 15 5 2 7 6 5 5 4 4 3 4 82 98 96 96 95 96 88 73 72 55 10 8 7 9 9 8 8 6
8 4 7 11 38 44 57 36 37 48 56 51 98 91 13 15 3 5 6 5 6 5 4 4 3 78 95 97 96 89 96 92 76 67 66 14 10 7 9 10 10 9 8
8 3 8 12 41 49 51 36 80 65 64 68 76 100 91 97 16 5 6 6 6 6 5 5 4 83 95 96 96 97 95 94 78 65 69 35 11 8 8 10 10 10 10
8 3 7 12 41 47 52 56 75 84 71 82 64 42 96 96 87 4 6 7 6 6 4 4 10 86 97 97 97 95 96 92 81 65 65 74 30 10 8 10 11 11 12
8 3 7 11 38 47 57 76 60 70 72 73 72 35 90 99 32 4 6 7 7 5 5 3 32 78 97 97 91 94 96 94 85 68 51 56 57 27 8 9 10 11 11
9 4 8 10 29 40 54 79 32 64 34 65 66 57 50 98 9 5 6 7 8 5 6 3 48 94 96 96 95 96 95 93 86 74 49 43 51 48 26 9 9 11 11
11 4 9 10 15 29 37 56 38 55 36 40 62 62 58 86 9 6 7 8 8 6 5 4 20 92 97 96 89 98 95 96 86 84 54 47 47 44 45 30 11 9 10
13 6 8 10 11 23 25 53 49 49 37 27 56 53 100 33 9 6 7 9 7 7 6 3 55 96 96 96 84 90 94 93 89 93 66 48 38 30 34 44 37 17 10
15 9 6 10 10 13 19 45 43 49 34 26 45 46 29 54 10 8 10 9 7 8 5 4 86 96 97 97 100 80 81 94 96 96 80 48 37 24 18 22 36 40 30
19 14 5 9 9 10 17 32 44 44 33 30 41 39 85 17 9 10 10 8 7 6 3 65 98 97 97 97 87 89 96 97 98 97 71 52 45 31 18 16 22 32 42
22 17 7 8 9 9 12 23 44 48 35 33 41 42 89 10 8 9 9 8 6 4 5 40 95 99 98 96 97 94 90 94 96 96 80 55 50 37 23 16 20 31 32
25 20 16 5 10 12 14 21 32 47 46 36 49 48 83 8 8 8 8 7 6 4 5 92 99 97 97 96 97 96 96 87 89 96 90 57 50 46 33 15 17 19 16
29 24 21 10 7 10 13 13 23 44 45 43 42 58 84 9 7 7 7 7 5 4 63 95 98 97 97 97 96 94 96 97 92 94 93 65 50 49 35 22 14 14 14
33 30 26 20 5 9 11 15 19 25 47 46 41 61 100 18 7 6 6 6 5 8 83 97 97 97 98 97 93 90 96 98 94 88 96 82 55 48 42 26 15 14 15
37 37 32 25 16 4 9 12 16 19 23 45 47 47 77 64 16 8 6 5 4 23 87 96 98 97 96 96 97 96 86 96 97 100 95 100 96 74 53 50 25 16 16
42 42 40 32 23 12 5 9 15 17 19 24 43 44 51 48 72 17 8 10 5 32 94 97 98 97 97 94 97 98 97 97 100 100 96 97 98 99 76 59 68 50 18
28 35 42 37 29 21 11 5 9 15 17 21 28 39 42 55 30 48 23 32 20 32 80 95 98 99 98 97 96 96 97 98 100 98 98 98 97 98 92 87 83 67 33

GFSMA_500_rhum_303.txt.gz
RH
1 1 2 3 8 11 10 7 6 4 3 2 2 2 2 2 2 2 3 5 4 6 4 2 6 71 96 96 96 97 96 86 65 53 30 35 31 5 8 14 16 16 16
1 2 3 9 13 11 7 6 4 3 2 2 3 4 3 3 2 3 2 5 5 5 6 3 17 46 94 96 97 96 96 91 68 59 17 27 12 5 8 16 18 16 16
1 2 9 15 11 7 6 3 3 3 4 5 5 5 4 4 4 3 3 3 6 5 6 3 2 29 95 97 96 97 96 96 76 51 23 10 5 6 8 15 20 17 17
2 10 17 11 7 6 4 3 4 6 7 12 14 12 10 6 3 3 7 4 7 5 6 2 2 12 90 94 96 97 94 99 95 61 13 6 6 6 8 12 18 20 18
10 19 13 8 7 4 4 5 8 13 20 25 25 18 14 12 4 3 7 8 10 6 5 3 2 4 87 88 100 96 97 95 85 37 13 6 6 6 7 10 14 20 20
20 16 10 8 5 4 5 9 23 37 31 39 38 31 19 16 6 4 4 10 12 7 4 4 2 4 78 96 94 96 97 92 88 20 13 6 6 6 7 7 10 14 19
20 13 8 7 4 5 12 28 39 44 52 51 44 38 26 20 7 4 3 11 13 7 4 5 3 4 84 97 95 97 96 94 83 23 14 6 6 7 7 6 7 11 14
16 12 8 6 4 12 25 44 50 61 58 66 58 50 36 19 9 5 3 12 13 7 5 5 3 2 77 97 98 96 97 94 69 26 18 7 6 7 7 6 6 7 11
16 10 8 5 5 22 46 44 53 74 67 69 62 49 58 19 5 3 4 12 12 7 6 5 3 3 82 97 96 96 96 94 76 41 19 7 6 7 7 6 6 6 8
16 10 8 5 10 29 59 68 63 84 85 85 78 86 32 14 6 2 4 12 11 7 6 6 3 3 86 97 97 96 96 96 82 53 20 9 6 7 7 7 7 6 6
16 11 7 6 18 43 55 75 46 70 93 93 68 81 51 89 37 2 5 11 9 7 7 6 3 3 75 97 97 96 97 93 85 63 25 11 6 7 7 8 7 6 6
16 12 7 6 18 43 59 72 32 85 58 90 61 73 100 100 97 2 7 10 9 7 7 5 4 4 69 98 96 97 92 94 90 71 36 12 7 8 8 9 8 7 6
16 12 6 6 15 37 43 62 27 66 39 76 58 100 100 100 63 3 7 10 9 7 7 6 6 4 83 97 94 94 96 94 79 77 42 16 7 8 8 9 8 8 7
16 12 6 7 17 37 27 51 31 38 31 66 79 98 100 100 30 3 7 9 8 6 7 5 6 4 74 96 97 97 98 94 70 72 52 19 8 8 8 10 10 10 9
17 13 6 7 12 24 43 43 29 26 40 61 43 96 100 98 35 4 7 9 7 6 6 6 4 13 62 98 100 91 96 94 70 73 68 22 9 8 8 10 10 11 10
20 14 6 8 11 22 48 30 31 25 46 48 77 99 100 64 72 5 7 8 7 6 5 5 3 15 93 90 97 95 96 90 72 70 75 35 10 9 8 9 10 11 11
23 15 6 8 10 27 40 38 28 27 47 80 80 95 100 100 58 6 7 8 7 6 5 4 6 68 93 97 94 96 97 96 77 72 77 58 15 12 8 8 10 10 11
27 18 6 9 10 21 26 36 30 29 48 68 100 87 99 98 63 6 7 8 8 8 6 6 6 56 96 92 97 96 97 96 92 70 75 83 55 31 13 8 8 10 11
32 22 6 10 13 15 24 39 40 37 47 42 100 100 31 18 12 6 8 9 9 8 7 7 19 86 95 96 96 96 93 95 95 82 75 81 84 64 46 18 10 9 10
36 25 7 10 16 18 21 42 42 46 47 97 100 60 24 15 10 8 8 9 9 8 8 5 60 90 96 98 95 96 85 94 95 90 95 55 50 52 56 51 42 24 10
39 27 12 8 15 31 22 41 43 47 58 93 100 97 65 14 12 10 10 10 8 7 6 15 69 94 99 94 92 93 95 93 96 95 96 76 51 49 48 44 41 44 45
38 28 16 6 12 26 23 33 45 45 77 100 100 98 26 13 12 11 11 9 10 8 5 47 90 96 97 94 98 96 93 96 93 93 98 90 57 41 34 25 20 19 27
34 29 19 6 10 21 28 23 45 41 99 98 100 95 23 10 11 10 10 9 10 6 5 59 87 98 97 97 97 95 96 96 86 84 99 95 72 35 30 28 20 17 20
30 29 22 14 6 14 27 20 34 44 96 100 100 100 19 9 9 9 9 10 6 4 13 81 98 93 92 97 96 95 96 95 98 99 95 98 88 58 42 32 24 18 19
26 26 25 20 8 9 21 20 20 40 47 97 100 100 43 9 8 8 8 8 6 5 57 96 93 97 98 97 97 97 96 97 97 97 96 98 96 58 55 46 38 29 16
21 21 22 23 19 7 14 19 20 25 40 47 99 100 74 12 7 6 6 5 7 16 68 98 96 98 98 97 98 98 97 97 100 98 97 96 97 92 60 56 49 44 24

GFSMA_500_rhum_306.txt.gz
RH
2 2 2 1 1 2 4 6 8 10 9 8 7 6 5 4 4 4 5 6 4 5 6 5 5 2 2 37 92 89 96 96 96 63 44 32 26 19 12 8 14 13 15
2 2 1 2 4 7 9 11 10 10 8 7 6 5 4 3 3 3 2 4 5 4 5 6 5 3 2 29 95 88 95 96 96 82 49 48 22 12 8 8 13 15 19
2 2 3 8 11 12 12 11 10 10 7 5 4 4 4 4 4 3 2 2 3 4 3 7 6 4 2 20 82 88 96 96 96 92 77 28 11 10 9 13 14 17 21
2 6 12 13 14 13 13 12 8 5 4 5 6 11 13 12 12 12 7 2 2 3 3 6 6 4 6 13 71 96 98 97 84 83 32 20 12 10 9 16 15 18 18
10 15 15 15 15 14 11 6 5 5 8 13 17 22 18 13 14 14 13 6 3 2 3 5 7 3 15 20 53 96 98 97 86 43 21 25 28 7 10 17 17 18 18
17 16 17 17 15 12 7 5 6 17 32 44 44 53 45 22 19 21 15 8 3 2 3 6 6 4 6 24 55 97 96 91 66 27 34 59 24 6 10 18 19 19 18
18 19 18 15 13 8 6 6 17 58 58 51 53 58 58 46 46 27 16 6 3 2 4 8 6 5 5 31 70 97 96 99 62 46 56 42 12 8 10 15 21 20 19
19 18 17 15 10 6 6 20 47 65 62 63 63 67 83 74 51 34 18 5 4 3 7 9 6 7 6 31 66 96 96 96 95 92 47 19 7 8 9 12 16 22 21
20 18 18 15 9 6 12 43 61 68 50 74 68 78 70 99 89 33 17 5 4 3 10 9 7 8 6 69 80 94 97 96 88 93 57 11 8 8 8 10 13 16 21
19 19 18 15 7 7 24 41 51 54 61 50 66 91 82 46 24 14 9 4 4 4 12 10 8 9 5 35 92 96 98 95 95 81 33 7 8 7 7 7 8 12 15
19 20 20 12 6 13 38 39 35 51 52 40 77 58 80 100 100 21 7 3 4 5 13 11 9 9 6 52 97 97 96 97 96 65 54 7 8 7 7 7 6 8 12
22 25 20 8 6 17 32 47 57 41 28 65 68 97 92 100 100 16 4 3 3 9 14 10 10 8 6 88 98 95 96 97 94 84 16 7 8 8 7 7 6 6 8
27 28 19 6 7 25 36 51 56 26 36 66 71 100 100 100 84 7 3 3 5 13 13 11 9 7 4 94 96 96 97 96 94 88 11 7 8 8 7 6 6 6 6
27 29 15 6 7 29 49 54 30 27 58 50 80 100 100 98 14 4 2 3 10 13 12 10 9 6 6 89 97 97 96 98 98 87 10 8 7 8 7 6 7 7 6
34 26 10 8 8 34 44 52 28 39 58 83 100 100 99 20 7 5 3 7 12 11 11 11 7 6 33 98 97 97 97 97 85 74 11 8 7 8 7 7 7 7 6
33 20 7 10 10 32 52 44 31 46 74 100 100 100 100 33 10 4 6 11 11 10 9 7 7 6 88 96 98 97 98 98 86 71 12 10 7 7 7 8 8 8 7
25 17 7 11 12 31 47 39 42 48 94 100 100 100 100 53 10 6 10 12 10 9 7 7 6 6 68 98 97 97 97 95 92 50 16 10 7 7 8 9 9 9 8
22 14 8 14 19 28 42 40 45 74 99 92 95 100 85 97 7 10 12 10 9 9 8 6 5 8 89 95 97 97 94 100 92 69 26 12 8 8 8 9 10 10 10
20 12 9 16 20 32 39 49 46 98 70 67 95 100 100 18 8 11 12 10 10 10 9 7 4 24 94 96 92 97 98 95 91 88 59 15 10 8 8 9 10 10 11
20 10 9 18 22 28 40 58 67 100 35 63 99 95 39 8 10 11 11 10 11 10 9 9 7 44 95 97 96 97 97 97 87 84 88 36 13 9 9 8 10 10 11
20 10 9 21 24 28 49 69 93 100 79 47 76 68 22 10 10 10 10 10 10 9 12 9 6 68 89 96 95 96 98 98 91 83 87 72 39 14 10 8 8 10 10
20 12 8 22 24 26 58 81 96 100 100 37 100 81 14 10 12 10 10 10 8 8 8 8 25 76 96 96 92 92 96 95 84 83 80 67 60 28 14 12 8 8 9
22 16 8 23 26 24 58 100 94 77 100 86 80 16 14 12 12 12 11 9 8 9 8 8 33 84 93 94 93 94 96 83 88 76 73 68 66 64 39 26 20 16 10
23 20 8 20 23 24 50 85 98 99 100 98 35 14 14 14 14 12 11 11 10 7 6 32 83 92 96 93 96 99 89 91 93 93 76 67 62 68 66 63 56 49 45
24 22 14 10 23 23 37 66 100 97 100 68 80 16 11 10 11 11 11 11 8 6 33 76 94 98 99 95 100 93 97 97 96 95 95 84 69 63 54 47 52 50 40
25 24 22 10 16 24 27 48 84 99 100 100 22 14 8 9 9 10 7 6 5 31 90 96 89 88 82 82 93 94 95 95 96 97 94 90 91 74 77 52 46 35 25

GFSMA_500_rhum_312.txt.gz
RH
3 4 5 5 4 4 4 2 2 3 3 4 4 3 3 3 3 3 3 4 3 2 2 2 2 2 2 4 4 2 9 32 62 75 96 87 96 97 96 79 15 16 11
3 3 4 4 3 2 3 3 4 3 3 2 2 3 3 3 3 3 4 5 7 5 3 3 3 2 2 5 6 2 11 34 56 86 97 97 96 96 95 67 27 11 14
3 3 3 4 6 5 5 3 4 4 4 3 4 4 3 3 3 4 4 3 3 6 7 4 5 3 2 6 6 4 24 51 87 73 95 96 97 96 91 55 11 54 18
3 5 8 11 9 5 5 5 4 4 4 4 4 3 3 4 5 5 5 5 4 4 3 7 6 5 4 6 6 5 21 37 88 96 97 97 97 91 28 16 79 23 20
10 14 14 8 8 8 5 5 4 4 5 5 5 9 9 9 8 8 8 8 6 5 4 2 6 7 5 8 7 6 12 26 94 97 97 96 94 35 46 71 26 24 23
19 11 10 10 7 6 6 6 6 6 6 12 13 10 9 9 8 10 8 6 4 4 4 3 3 7 7 8 8 7 6 20 64 97 96 97 64 71 41 32 25 24 23
11 13 8 7 6 6 8 9 13 18 16 11 10 14 28 36 39 50 40 26 15 9 5 3 2 5 7 7 8 8 10 20 46 98 96 96 84 56 73 20 24 24 20
14 8 7 7 8 16 18 15 13 9 8 10 23 37 45 44 40 46 49 52 32 20 10 6 3 2 6 6 6 8 14 11 20 92 97 93 82 67 38 22 24 26 19
8 7 10 16 20 16 14 9 7 8 15 35 50 53 53 50 51 43 35 41 52 39 18 10 4 3 5 5 6 7 10 18 45 97 96 92 42 71 28 19 23 25 19
8 15 18 17 14 12 7 9 11 28 40 43 54 43 30 28 27 52 44 47 65 66 50 12 9 4 4 5 5 7 14 23 96 97 97 90 44 55 26 23 25 25 20
16 15 15 15 10 8 13 18 32 47 48 41 34 46 57 54 64 66 71 82 70 44 59 15 10 4 4 4 5 7 20 37 76 97 97 35 69 28 26 21 24 25 21
15 16 16 9 10 19 32 40 40 42 45 75 94 94 100 88 62 79 84 99 88 49 51 17 10 4 4 4 5 8 35 25 61 97 92 43 57 27 29 19 24 25 22
16 16 9 12 19 36 47 44 65 93 100 100 86 79 89 90 98 100 100 100 86 32 27 13 10 4 3 4 5 15 19 67 97 98 85 52 21 32 31 24 22 25 23
18 10 14 20 36 49 53 87 72 98 100 100 100 100 99 82 93 100 100 84 36 25 15 11 4 3 3 4 8 14 13 84 97 97 68 32 18 42 29 27 23 26 23
12 16 20 33 70 85 69 72 88 100 100 99 68 73 100 100 100 67 85 52 17 13 10 4 3 3 4 10 62 46 31 53 98 96 76 10 64 21 23 28 27 26 23
15 21 32 72 94 85 89 95 100 99 100 90 100 96 100 66 71 24 14 9 7 6 4 3 3 4 6 28 68 36 76 95 97 91 32 33 17 29 17 24 31 26 26
19 27 73 97 100 100 100 100 100 100 100 100 90 78 41 9 9 6 5 5 5 4 3 6 11 9 47 98 74 92 98 98 95 45 30 29 60 12 12 13 17 21 26
23 68 90 100 98 99 100 93 95 100 100 74 71 14 7 6 6 7 7 6 6 11 10 16 68 99 28 41 98 97 98 96 76 25 65 59 13 12 11 10 10 11 14
46 97 100 94 99 99 100 96 100 100 100 43 13 6 6 8 13 20 22 25 24 20 16 15 93 98 99 82 98 98 97 98 46 63 84 28 11 11 9 9 8 9 10
79 100 98 96 100 100 76 97 100 77 43 33 33 34 36 40 37 34 29 23 19 18 18 20 47 88 92 98 98 92 97 98 94 90 52 14 12 10 9 8 8 8 8
100 96 76 100 90 100 72 99 100 32 34 38 40 40 39 37 34 29 27 26 58 25 40 35 96 99 98 98 97 98 96 93 91 57 28 28 10 10 9 9 8 8 7
100 77 91 93 97 99 100 97 100 100 30 32 35 40 33 28 29 26 56 46 46 38 35 28 95 96 93 98 98 95 97 87 66 62 21 16 10 10 9 8 8 8 7
89 68 69 100 95 99 100 86 99 100 73 26 28 28 28 24 23 24 25 42 38 66 100 98 98 98 98 97 83 96 100 85 76 46 30 10 8 8 7 8 8 7 7
71 43 55 99 100 71 52 42 27 23 21 21 22 22 21 22 23 23 23 26 42 54 99 98 98 99 99 96 96 95 89 92 70 54 29 8 9 8 8 7 8 7 8
54 39 58 99 100 34 27 24 22 90 34 18 19 20 21 21 18 18 17 14 38 71 96 92 96 94 87 95 84 92 98 94 69 56 33 8 8 8 7 7 7 8 8
62 38 73 92 100 47 25 52 34 72 18 16 15 14 15 16 19 17 17 20 31 45 65 75 96 97 87 78 100 94 97 86 76 61 37 21 7 7 8 7 7 8 9